Torna al catalogo

SL-14 DEB

AttivoPO
NORAD 45310·DEBRIS·🇷🇺 Russia

Lanciato Aug 15, 1991 da Plesetsk Cosmodrome

Loading…

Prossimi Passaggi (prossime 24 ore)

TLE

AggiornatoSource: Space-Track

Epoca: Sep 14, 2026, 02:20 UTC

1 45310U 91056AY  26257.09723557 -.00000067  00000-0 -26072-3 0  9999
2 45310  82.5978 143.7711 0100250 222.5317 136.7999 12.97902541310309

Traccia SL-14 DEB in tempo reale con AllMySat

Download on the App Store